EW3370 Weather Reports


Display with metric or nautical units.
time (UTC)temp
F
wind
direction
speed
MPH
gust
MPH
rain 1hr
in
rain 24hr
in
rain mn
in
humidity
%
barometer
mb
20260505194025 70 290 6.0 10.0 0.00 0.02 0.01 61 1015.3
20260505193530 70 254 4.0 10.0 0.00 0.02 0.01 62 1015.4
20260505193035 70 244 5.0 10.0 0.00 0.02 0.01 62 1015.4
20260505192537 69 265 5.0 10.0 0.00 0.02 0.01 61 1015.4
20260505192044 69 321 5.0 10.0 0.00 0.02 0.01 60 1015.4
20260505191527 70 257 5.0 13.0 0.00 0.02 0.01 60 1015.4
20260505191029 69 280 5.0 13.0 0.00 0.02 0.01 60 1015.4
20260505190527 70 238 6.0 11.0 0.00 0.02 0.01 59 1015.4
20260505190043 70 244 5.0 11.0 0.00 0.02 0.01 59 1015.4
20260505185531 69 258 5.0 11.0 0.00 0.02 0.01 59 1015.5
20260505185036 69 259 5.0 11.0 0.00 0.02 0.01 58 1015.5
20260505184548 69 267 5.0 11.0 0.00 0.02 0.01 60 1015.4
20260505184027 69 261 4.0 11.0 0.00 0.02 0.01 61 1015.5
20260505183529 68 273 6.0 11.0 0.00 0.02 0.01 65 1015.4
20260505183029 68 273 5.0 10.0 0.00 0.02 0.01 64 1015.4
20260505182534 68 290 6.0 10.0 0.00 0.02 0.01 65 1015.5
20260505182024 68 290 4.0 11.0 0.00 0.02 0.01 65 1015.5
20260505181527 68 277 5.0 11.0 0.00 0.02 0.01 65 1015.5
20260505181031 68 280 4.0 8.0 0.00 0.02 0.01 64 1015.5
20260505180520 68 307 3.0 11.0 0.00 0.02 0.01 65 1015.4
20260505180025 68 248 4.0 11.0 0.00 0.02 0.01 64 1015.4
20260505175529 68 271 4.0 9.0 0.00 0.02 0.01 65 1015.3
20260505175055 68 274 5.0 9.0 0.00 0.02 0.01 66 1015.2
20260505174527 68 261 4.0 8.0 0.00 0.02 0.01 68 1015.1
20260505174028 67 254 3.0 8.0 0.00 0.02 0.01 69 1015.1
20260505173532 66 263 3.0 10.0 0.00 0.02 0.01 68 1015.0
20260505173025 66 286 3.0 10.0 0.00 0.02 0.01 69 1015.0
20260505172524 67 253 3.0 9.0 0.00 0.02 0.01 68 1014.9
20260505172025 67 302 3.0 8.0 0.00 0.02 0.01 69 1015.0
20260505171549 66 267 3.0 9.0 0.00 0.02 0.01 69 1014.9
20260505171028 66 269 3.0 10.0 0.00 0.02 0.01 71 1014.9
20260505170538 65 249 3.0 10.0 0.00 0.03 0.01 72 1014.8
20260505170055 64 256 5.0 10.0 0.00 0.03 0.01 71 1014.8
20260505165559 63 311 3.0 9.0 0.00 0.03 0.01 73 1014.7
20260505165021 63 288 4.0 7.0 0.00 0.03 0.01 74 1014.7
20260505164523 63 275 2.0 7.0 0.00 0.03 0.01 77 1014.7
20260505164025 63 279 3.0 6.0 0.00 0.03 0.01 76 1014.6
20260505163530 64 300 1.0 6.0 0.00 0.03 0.01 77 1014.6
20260505163023 63 303 2.0 6.0 0.00 0.03 0.01 77 1014.5
20260505162529 63 309 2.0 6.0 0.00 0.03 0.01 77 1014.5
20260505162034 63 319 3.0 6.0 0.00 0.03 0.01 77 1014.4
20260505161555 63 265 3.0 7.0 0.00 0.03 0.01 77 1014.5
20260505161040 63 288 4.0 7.0 0.00 0.03 0.01 76 1014.4
20260505160522 62 312 2.0 7.0 0.00 0.03 0.01 77 1014.2
20260505153019 62 283 1.0 6.0 0.00 0.03 0.01 82 1014.1
20260505152522 62 346 2.0 7.0 0.00 0.03 0.01 82 1014.1
20260505152025 61 350 1.0 8.0 0.00 0.03 0.01 83 1014.1
20260505151531 61 317 3.0 8.0 0.00 0.03 0.01 84 1014.1
20260505151022 61 321 2.0 7.0 0.00 0.03 0.01 84 1014.0
20260505150520 61 293 3.0 7.0 0.00 0.03 0.01 84 1014.0
20260505140524 58 40 2.0 5.0 0.01 0.03 0.01 90 1013.6
20260505125030 57 337 1.0 5.0 0.00 0.02 0.00 91 1012.9
20260505124536 57 13 2.0 6.0 0.00 0.02 0.00 91 1012.9
20260505124059 57 23 2.0 8.0 0.00 0.02 0.00 91 1012.9
20260505123524 58 39 2.0 8.0 0.00 0.02 0.00 91 1012.9
20260505123024 58 34 3.0 6.0 0.00 0.02 0.00 91 1012.9
20260505122530 58 37 3.0 6.0 0.00 0.02 0.00 91 1012.9
20260505122038 58 44 3.0 7.0 0.00 0.02 0.00 91 1012.9
20260505121519 58 40 5.0 7.0 0.00 0.02 0.00 91 1012.8
20260505121043 58 355 3.0 5.0 0.00 0.02 0.00 91 1012.8
20260505120525 58 53 2.0 4.0 0.00 0.02 0.00 91 1012.8
20260505120034 58 33 2.0 5.0 0.00 0.02 0.00 91 1012.9
20260505115522 58 32 2.0 7.0 0.00 0.02 0.00 91 1012.8
20260505115031 58 34 3.0 7.0 0.00 0.02 0.00 90 1012.9
20260505114531 59 44 1.0 5.0 0.00 0.02 0.00 90 1012.9
20260505114039 59 44 2.0 6.0 0.00 0.02 0.00 90 1012.9
20260505113523 59 44 4.0 6.0 0.00 0.02 0.00 90 1012.8
20260505113029 59 38 3.0 5.0 0.00 0.02 0.00 90 1012.9
20260505112537 59 40 2.0 4.0 0.00 0.02 0.00 90 1012.8
20260505112020 59 40 2.0 6.0 0.00 0.02 0.00 90 1012.8
20260505111526 59 40 2.0 6.0 0.00 0.02 0.00 89 1012.9
20260505111028 59 26 2.0 6.0 0.00 0.02 0.00 89 1012.9
20260505110533 59 355 2.0 5.0 0.00 0.02 0.00 89 1012.9
20260505102058 59 252 2.0 7.0 0.00 0.02 0.00 89 1013.0
20260505101523 59 299 3.0 7.0 0.00 0.02 0.00 89 1013.0
20260505101025 59 325 4.0 7.0 0.00 0.02 0.00 88 1013.0
20260505100530 59 277 2.0 7.0 0.00 0.02 0.00 89 1013.0
20260505100038 59 266 3.0 7.0 0.00 0.02 0.00 88 1013.0
20260505095522 59 254 2.0 9.0 0.00 0.02 0.00 88 1013.0
20260505095023 59 239 4.0 9.0 0.00 0.02 0.00 87 1013.1
20260505094533 59 269 2.0 5.0 0.00 0.02 0.00 86 1013.0
20260505094021 59 304 1.0 3.0 0.00 0.02 0.00 87 1013.1
20260505093550 59 313 0.0 2.0 0.00 0.02 0.00 87 1013.0
20260505093033 59 313 1.0 2.0 0.00 0.02 0.00 87 1013.1
20260505092538 59 313 0.0 1.0 0.00 0.02 0.00 87 1013.1
20260505092022 59 313 0.0 2.0 0.00 0.02 0.00 86 1013.2
20260505091525 59 313 0.0 2.0 0.00 0.02 0.00 86 1013.3
20260505091029 59 313 0.0 6.0 0.00 0.02 0.00 85 1013.3
20260505090532 59 313 2.0 8.0 0.00 0.02 0.00 84 1013.4
20260505090019 59 306 3.0 8.0 0.00 0.02 0.00 84 1013.4
20260505085546 60 346 5.0 7.0 0.00 0.02 0.00 84 1013.4
20260505085056 59 313 0.0 4.0 0.00 0.02 0.00 85 1013.4
20260505084523 59 317 1.0 3.0 0.00 0.02 0.00 84 1013.5
20260505084052 59 324 1.0 3.0 0.00 0.02 0.00 84 1013.5
20260505083558 59 326 1.0 5.0 0.00 0.02 0.00 85 1013.5
20260505083041 59 309 2.0 6.0 0.00 0.02 0.00 85 1013.5
20260505082524 59 304 2.0 6.0 0.00 0.02 0.00 85 1013.7
20260505082034 59 320 1.0 4.0 0.00 0.02 0.00 84 1013.7
20260505081520 59 323 2.0 4.0 0.00 0.02 0.00 84 1013.8
20260505081024 59 259 2.0 6.0 0.00 0.02 0.00 84 1013.9
20260505080530 59 276 2.0 7.0 0.00 0.02 0.00 84 1013.9
20260505080035 59 242 2.0 7.0 0.00 0.02 0.00 83 1014.0
20260505075542 59 251 2.0 7.0 0.00 0.02 0.00 83 1014.1
20260505075019 60 252 3.0 7.0 0.00 0.02 0.00 83 1014.0
20260505074526 60 249 1.0 7.0 0.00 0.02 0.00 83 1014.1
20260505074030 59 252 3.0 7.0 0.00 0.02 0.00 81 1014.1
20260505073535 60 214 1.0 5.0 0.00 0.02 0.00 80 1014.0
20260505073020 60 200 1.0 5.0 0.00 0.02 0.00 83 1014.1
20260505072522 60 288 0.0 2.0 0.00 0.02 0.00 87 1014.1
20260505072023 60 286 0.0 2.0 0.00 0.02 0.00 86 1014.2
20260505071525 60 286 0.0 2.0 0.00 0.02 0.00 86 1014.2
20260505071038 60 286 1.0 3.0 0.00 0.02 0.00 86 1014.2
20260505070520 60 286 1.0 3.0 0.00 0.02 0.02 86 1014.3
20260505070046 60 309 2.0 4.0 0.00 0.02 0.02 86 1014.2
20260505065529 60 310 2.0 4.0 0.00 0.02 0.02 85 1014.3
20260505065029 60 318 3.0 5.0 0.00 0.02 0.02 84 1014.2
20260505064536 60 308 2.0 6.0 0.00 0.02 0.02 84 1014.3
20260505064019 60 299 2.0 6.0 0.00 0.02 0.02 84 1014.3
20260505063522 61 294 2.0 5.0 0.00 0.02 0.02 84 1014.4
20260505063025 61 296 3.0 6.0 0.00 0.02 0.02 84 1014.3
20260505062528 61 296 2.0 6.0 0.00 0.02 0.02 84 1014.3
20260505062031 61 269 3.0 6.0 0.00 0.02 0.02 84 1014.3
20260505061534 61 265 3.0 6.0 0.00 0.02 0.02 84 1014.3
20260505061037 61 273 2.0 7.0 0.00 0.02 0.02 84 1014.3
20260505060536 61 284 3.0 7.0 0.00 0.02 0.02 84 1014.4
20260505060039 61 266 2.0 4.0 0.00 0.02 0.02 84 1014.4
20260505055529 61 269 1.0 6.0 0.00 0.02 0.02 83 1014.4
20260505055033 60 279 2.0 6.0 0.00 0.02 0.02 84 1014.4
20260505054538 60 279 2.0 6.0 0.00 0.02 0.02 83 1014.5
20260505054022 60 281 2.0 5.0 0.00 0.02 0.02 83 1014.6
20260505053528 60 275 2.0 5.0 0.00 0.02 0.02 83 1014.6
20260505053019 60 281 2.0 8.0 0.00 0.02 0.02 83 1014.7
20260505052547 60 296 3.0 8.0 0.00 0.02 0.02 83 1014.6
20260505052032 60 291 2.0 7.0 0.01 0.02 0.02 83 1014.7
20260505051537 60 311 3.0 8.0 0.01 0.02 0.02 84 1014.7
20260505051042 60 302 4.0 8.0 0.01 0.02 0.02 84 1014.8
20260505050520 61 277 3.0 8.0 0.01 0.02 0.02 84 1014.8
20260505041535 63 310 2.0 5.0 0.00 0.01 0.01 82 1014.6
20260505041020 63 9 2.0 6.0 0.00 0.01 0.01 81 1014.6
20260505040526 63 335 1.0 6.0 0.00 0.01 0.01 80 1014.6
20260505040031 63 286 3.0 6.0 0.00 0.01 0.01 77 1014.6
20260505035539 63 289 2.0 7.0 0.00 0.01 0.01 77 1014.5
20260505035045 63 255 2.0 7.0 0.00 0.01 0.01 77 1014.5
20260505034533 63 286 2.0 6.0 0.00 0.01 0.01 77 1014.5
20260505034022 63 331 2.0 6.0 0.00 0.01 0.01 77 1014.5
20260505033548 63 279 3.0 6.0 0.00 0.01 0.01 77 1014.4
20260505033026 63 268 2.0 6.0 0.00 0.01 0.01 77 1014.5
20260505032535 63 267 2.0 8.0 0.00 0.01 0.01 77 1014.4
20260505032020 63 284 3.0 8.0 0.00 0.01 0.01 76 1014.3
20260505031520 63 294 2.0 7.0 0.00 0.01 0.01 76 1014.2
20260505031049 63 309 3.0 7.0 0.00 0.01 0.01 77 1014.2
20260505030537 63 325 3.0 6.0 0.00 0.01 0.01 76 1014.3
20260505030037 63 288 3.0 6.0 0.00 0.01 0.01 76 1014.2
20260505025544 63 312 2.0 5.0 0.00 0.01 0.01 76 1014.1
20260505025028 64 314 3.0 6.0 0.00 0.01 0.01 76 1014.1
20260505024534 64 296 3.0 6.0 0.00 0.01 0.01 76 1014.1
20260505024038 64 317 4.0 7.0 0.00 0.01 0.01 76 1014.1
20260505023524 64 306 3.0 7.0 0.00 0.01 0.01 75 1014.2
20260505023028 64 289 4.0 9.0 0.00 0.01 0.01 75 1014.2
20260505022530 64 275 4.0 9.0 0.00 0.01 0.01 75 1014.2
20260505022039 64 300 4.0 6.0 0.00 0.01 0.01 75 1014.2
20260505021519 64 284 2.0 9.0 0.00 0.01 0.01 74 1014.2
20260505021025 65 244 4.0 9.0 0.00 0.01 0.01 74 1014.2
20260505020530 65 301 4.0 9.0 0.00 0.01 0.01 74 1014.2
20260505020033 65 272 3.0 9.0 0.00 0.01 0.01 73 1014.2
20260505015541 65 253 3.0 10.0 0.00 0.01 0.01 72 1014.2
20260505015024 65 263 4.0 10.0 0.00 0.01 0.01 73 1014.3
20260505014533 65 284 4.0 9.0 0.00 0.01 0.01 72 1014.3
20260505014041 66 264 4.0 8.0 0.00 0.01 0.01 72 1014.4
20260505013528 66 311 4.0 9.0 0.00 0.01 0.01 71 1014.3
20260505013026 66 328 4.0 12.0 0.00 0.01 0.01 70 1014.4
20260505012553 66 266 3.0 12.0 0.00 0.01 0.01 70 1014.4
20260505012036 67 301 4.0 9.0 0.00 0.01 0.01 69 1014.3
20260505011520 67 261 5.0 10.0 0.00 0.01 0.01 69 1014.3
20260505011023 68 276 5.0 10.0 0.00 0.01 0.01 68 1014.3
20260505010525 68 238 5.0 9.0 0.00 0.01 0.01 67 1014.4
20260505010036 68 317 4.0 9.0 0.00 0.01 0.01 67 1014.4
20260505005539 67 283 5.0 11.0 0.00 0.01 0.01 68 1014.4
20260505005022 68 310 5.0 11.0 0.00 0.01 0.01 66 1014.5
20260505004526 68 296 4.0 9.0 0.00 0.01 0.01 65 1014.5
20260505004026 69 254 5.0 9.0 0.00 0.01 0.01 64 1014.6
20260505003527 70 275 4.0 9.0 0.00 0.01 0.01 63 1014.7
20260505003030 70 328 3.0 12.0 0.00 0.01 0.01 64 1014.6
20260505002528 69 236 4.0 12.0 0.00 0.01 0.01 64 1014.6
20260505002031 69 285 5.0 12.0 0.00 0.01 0.01 64 1014.6
20260505001529 69 294 5.0 10.0 0.00 0.01 0.01 64 1014.6
20260505001028 69 285 5.0 9.0 0.00 0.01 0.01 63 1014.7
20260505000553 70 260 5.0 10.0 0.00 0.01 0.01 63 1014.6
20260505000040 70 310 5.0 12.0 0.00 0.01 0.01 63 1014.5
20260504235523 69 289 6.0 12.0 0.00 0.01 0.01 64 1014.7
20260504235029 68 267 4.0 10.0 0.00 0.01 0.01 65 1014.7
20260504234538 68 252 5.0 10.0 0.00 0.01 0.01 65 1014.7
20260504234023 68 285 5.0 10.0 0.00 0.01 0.01 65 1014.6
20260504233526 68 335 5.0 10.0 0.00 0.01 0.01 66 1014.6
20260504233033 68 317 5.0 10.0 0.00 0.01 0.01 66 1014.6
20260504232537 68 265 4.0 9.0 0.00 0.01 0.01 66 1014.7
20260504232041 68 275 5.0 11.0 0.00 0.01 0.01 65 1014.8
20260504231527 68 294 5.0 11.0 0.00 0.01 0.01 65 1014.7
20260504231029 68 311 5.0 10.0 0.00 0.01 0.01 64 1014.7
20260504230534 68 252 6.0 10.0 0.00 0.01 0.01 63 1014.6
20260504230059 69 313 5.0 11.0 0.00 0.01 0.01 63 1014.8
20260504225525 69 263 6.0 14.0 0.00 0.01 0.01 62 1014.6
20260504225032 70 283 7.0 14.0 0.00 0.01 0.01 60 1014.7
20260504224557 71 234 6.0 12.0 0.00 0.01 0.01 59 1014.5
20260504224040 71 308 5.0 12.0 0.00 0.01 0.01 60 1014.6
20260504223523 70 293 6.0 11.0 0.00 0.01 0.01 62 1014.7
20260504223024 70 336 5.0 11.0 0.00 0.01 0.01 61 1014.7
20260504222528 70 275 5.0 11.0 0.00 0.01 0.01 61 1014.8
20260504222030 70 338 5.0 13.0 0.00 0.01 0.01 61 1014.9
20260504221535 70 257 5.0 13.0 0.00 0.01 0.01 61 1014.9
20260504221039 70 328 7.0 12.0 0.00 0.01 0.01 61 1014.9
20260504220519 71 281 5.0 10.0 0.00 0.01 0.01 61 1015.1
20260504220023 70 319 4.0 11.0 0.00 0.01 0.01 60 1015.1
20260504215547 71 267 6.0 11.0 0.00 0.01 0.01 59 1015.3
20260504215037 71 292 6.0 11.0 0.00 0.01 0.01 60 1015.1
20260504214519 71 336 5.0 13.0 0.00 0.01 0.01 60 1015.2
20260504214044 71 242 6.0 13.0 0.00 0.01 0.01 60 1015.2
20260504213528 71 338 6.0 11.0 0.00 0.01 0.01 59 1015.5
20260504213021 71 247 5.0 11.0 0.00 0.01 0.01 62 1015.4
20260504212548 71 277 6.0 11.0 0.00 0.01 0.01 60 1015.5
20260504212056 71 313 6.0 11.0 0.00 0.01 0.01 61 1015.5
20260504211540 71 281 6.0 10.0 0.00 0.01 0.01 60 1015.5
20260504211044 71 293 4.0 10.0 0.00 0.01 0.01 61 1015.7
20260504210528 70 283 5.0 9.0 0.00 0.01 0.01 61 1015.6
20260504210037 70 317 5.0 12.0 0.00 0.01 0.01 61 1015.6
20260504205519 70 276 6.0 12.0 0.00 0.01 0.01 61 1015.7
20260504205024 70 285 5.0 11.0 0.00 0.01 0.01 63 1015.8
20260504204529 70 329 6.0 13.0 0.00 0.01 0.01 62 1015.7
20260504204036 71 312 6.0 13.0 0.00 0.01 0.01 61 1015.8
20260504203525 70 258 4.0 10.0 0.00 0.01 0.01 62 1015.6
20260504203027 70 315 4.0 10.0 0.00 0.01 0.01 61 1015.7
20260504202528 70 298 5.0 11.0 0.00 0.01 0.01 63 1015.8
20260504202037 70 281 5.0 11.0 0.00 0.01 0.01 62 1015.8
20260504201539 70 300 6.0 11.0 0.00 0.01 0.01 62 1015.8
20260504201019 70 304 6.0 11.0 0.00 0.01 0.01 62 1015.8
20260504200519 70 286 5.0 10.0 0.00 0.01 0.01 62 1015.9
20260504200045 70 316 5.0 10.0 0.00 0.01 0.01 62 1015.8
20260504195525 70 287 5.0 10.0 0.00 0.01 0.01 63 1015.8
20260504195026 70 317 5.0 10.0 0.00 0.01 0.01 63 1015.7
20260504194551 69 271 4.0 11.0 0.00 0.01 0.01 64 1015.7